Theta_e
353 353 352 350 349 348 347 345 344 344 346 347 346 344 342 341 341 342 343 343 344 346 346 347 350 352 352 352 353 353 353 352 352 354 355 356 355 353 351 352 352 350 352 355 356 355 354 355 356 356 356 357 357 357 357 356 357 356 357 355 352 354 355 353 352 351 350 351 351 350 352 354 351 346 345 344 344 347 350 350 351 352 352 354 355
354 354 353 351 349 348 347 346 344 344 344 346 347 345 343 340 338 339 340 340 341 340 339 339 343 347 349 350 351 352 353 352 352 352 355 356 356 355 355 355 354 352 352 355 356 355 354 354 355 355 355 356 357 358 357 356 356 357 357 357 356 355 355 355 354 354 354 355 356 355 355 357 355 348 347 348 348 350 352 351 351 353 355 357 358
354 354 354 352 351 349 348 347 345 344 344 344 345 345 344 342 339 339 338 339 339 338 336 336 339 343 344 345 347 350 353 352 351 352 354 356 357 356 356 357 356 355 355 355 354 353 354 354 355 354 353 354 355 356 356 356 356 357 357 357 357 357 356 357 356 355 356 356 357 357 357 358 356 350 347 350 351 353 353 351 352 354 356 358 359
354 355 354 354 352 351 349 348 346 345 344 344 343 343 343 343 343 342 341 341 341 339 338 339 342 344 344 343 344 347 351 352 352 352 352 354 355 355 355 356 356 356 356 355 354 353 353 353 354 356 355 354 354 354 355 355 355 356 356 356 357 357 357 357 357 357 357 357 358 358 359 358 355 351 350 351 352 354 355 355 354 354 356 358 359
355 355 355 354 353 352 351 350 348 347 345 344 343 342 342 342 342 344 343 344 343 342 341 342 345 347 347 346 345 345 349 350 351 352 352 353 354 353 354 354 354 354 354 354 355 355 354 353 353 355 356 355 354 354 354 355 355 356 355 355 356 356 356 357 357 358 358 358 359 359 358 356 355 353 353 354 355 356 358 358 355 355 357 359 360
357 356 356 355 354 353 352 351 350 348 347 345 343 342 341 341 340 342 343 345 345 344 344 344 346 347 348 349 348 347 347 349 350 352 353 354 354 354 353 353 354 353 352 351 354 356 356 354 352 353 354 355 355 355 355 354 355 356 356 355 355 355 355 356 356 357 358 358 359 358 357 356 356 355 353 355 359 360 361 359 355 355 358 360 361
358 358 357 356 356 355 353 352 351 350 349 347 345 343 342 341 340 340 341 343 344 345 346 346 345 345 346 347 348 349 349 349 350 351 353 354 355 354 353 353 354 353 352 350 351 355 356 356 354 353 352 352 354 355 355 354 355 355 356 356 354 354 355 355 356 356 357 358 358 358 357 356 357 356 354 357 360 361 360 359 357 358 360 361 361
359 359 359 358 358 357 356 354 352 351 350 348 347 345 343 342 341 340 340 340 342 343 345 346 346 345 344 343 345 347 350 350 350 350 352 353 355 354 354 353 353 354 353 351 350 351 354 354 355 354 353 351 351 352 354 354 354 355 356 355 355 354 354 355 356 356 357 357 357 357 357 358 357 357 357 359 360 359 358 358 359 359 360 360 358
359 360 360 359 359 359 358 357 355 354 352 350 349 347 345 343 342 341 340 340 340 341 342 343 345 346 346 344 344 346 350 351 351 350 350 351 353 354 354 354 355 354 354 353 352 350 350 351 353 353 353 352 350 352 353 354 354 354 355 355 355 354 354 355 356 356 357 357 358 358 358 358 358 358 358 358 358 358 359 359 359 360 359 358 355
360 360 360 361 360 360 360 360 358 357 355 354 352 349 347 346 343 342 342 341 340 341 342 342 344 345 347 346 345 346 349 351 351 351 350 350 351 353 355 355 355 355 354 354 354 352 350 351 352 353 353 353 352 353 354 356 356 355 354 354 354 354 354 355 356 356 357 357 358 358 358 358 358 358 358 358 358 359 359 359 360 359 358 356 354
361 361 361 361 361 361 361 361 360 360 358 357 355 353 351 349 346 345 344 343 342 342 342 343 344 345 346 347 346 347 348 350 350 350 350 350 351 352 354 355 356 356 356 355 355 354 353 352 352 354 355 355 354 354 354 356 356 356 355 354 354 354 354 354 356 356 357 357 357 357 358 358 357 356 357 358 359 359 359 360 360 358 357 355 354
361 362 362 362 362 362 362 362 362 361 360 359 357 355 354 352 350 348 347 346 345 344 344 344 344 345 346 347 347 347 348 348 349 350 350 350 352 353 353 355 356 356 356 356 355 355 354 353 352 353 353 353 354 355 355 355 355 354 354 353 353 353 353 353 353 354 356 356 357 357 358 358 357 356 357 358 358 358 357 357 356 355 355 355 356
361 362 363 363 363 363 363 363 362 361 361 360 359 357 356 354 352 351 349 348 347 347 346 346 345 345 346 347 348 348 348 348 348 349 349 350 352 354 354 354 355 355 356 356 355 355 355 355 354 353 352 351 352 354 354 354 354 354 353 353 353 353 353 352 352 352 353 354 356 357 355 356 356 354 355 355 355 354 353 352 352 352 353 355 358
360 361 362 363 364 364 364 363 363 362 362 361 360 359 357 355 354 353 351 350 349 349 348 347 347 346 346 347 349 349 349 348 348 348 349 349 351 353 355 355 354 355 355 355 355 355 356 356 355 354 352 352 352 352 352 352 353 354 355 355 354 352 352 352 352 352 353 354 356 356 354 354 355 353 352 353 353 352 351 350 350 351 354 358 359
359 360 361 362 363 363 363 363 362 362 362 361 361 359 358 357 355 354 353 352 350 350 350 349 348 347 347 347 348 349 350 349 350 349 349 349 350 352 355 356 355 355 355 354 355 355 355 355 355 355 354 353 352 352 352 352 352 354 354 354 352 351 350 351 351 352 352 353 354 353 352 352 353 353 353 354 354 353 352 352 352 354 357 358 357
358 359 360 360 361 362 362 362 362 362 362 361 361 360 359 358 357 355 354 353 352 351 351 350 350 348 348 348 348 349 350 350 351 351 350 350 350 352 354 355 355 355 355 355 355 355 355 355 355 355 355 354 353 352 353 354 354 355 355 353 352 350 349 348 348 349 350 350 351 350 350 352 352 354 356 357 358 356 354 354 354 355 357 356 355
357 358 359 359 360 361 361 360 361 362 362 361 360 360 359 359 358 356 355 353 353 352 351 352 351 350 349 348 348 349 350 350 351 352 352 351 352 353 354 355 356 356 356 356 355 355 355 356 356 355 355 354 353 352 353 355 356 356 355 354 352 351 350 348 348 349 348 348 349 349 351 354 354 356 359 360 361 360 356 355 355 356 356 354 354
356 357 358 358 358 359 359 359 359 361 362 361 361 360 359 359 358 357 356 355 353 352 352 352 352 352 351 350 350 350 350 351 352 352 352 352 353 354 355 355 356 356 356 356 356 355 355 355 355 355 355 354 353 353 353 354 355 355 354 353 353 352 349 348 349 351 350 350 351 352 354 355 356 359 360 360 360 360 358 357 357 356 355 354 354
356 357 357 357 357 358 358 358 358 360 361 361 361 360 360 359 359 357 356 355 354 353 352 352 353 353 353 352 351 351 352 352 352 353 353 353 354 355 356 356 356 357 357 357 357 356 356 355 354 354 353 353 353 353 352 352 352 352 352 352 353 352 349 347 349 351 352 353 354 354 356 358 359 361 359 357 359 360 359 358 357 357 356 355 354
356 357 356 357 356 356 357 357 357 359 361 361 361 361 360 360 359 358 357 356 355 354 353 353 353 353 354 353 353 352 352 353 354 354 354 354 355 356 357 357 357 357 357 358 357 357 356 356 355 354 353 353 352 352 352 352 351 351 351 352 352 352 350 349 350 352 353 355 356 358 360 361 360 359 358 358 360 360 358 358 358 357 356 354 353
354 355 356 356 356 356 356 355 357 358 360 361 362 361 361 360 359 358 358 356 355 355 354 354 354 354 354 355 354 354 353 353 354 355 356 356 356 357 357 357 357 357 357 358 358 358 357 357 356 355 354 354 353 353 353 354 354 353 353 353 353 352 352 352 353 353 355 357 358 360 361 360 359 359 359 360 360 359 358 358 357 356 355 353 353
357 354 354 355 356 356 356 355 356 357 359 361 362 361 361 361 360 359 359 357 356 356 355 355 354 355 355 355 355 355 354 354 354 355 356 356 357 357 358 358 357 358 358 357 358 358 358 357 357 355 355 354 354 355 356 357 358 358 357 357 356 354 354 354 355 355 356 357 359 360 360 360 360 360 361 360 360 358 358 357 356 355 354 351 347
365 361 357 355 355 355 356 356 355 356 359 360 362 362 362 361 361 360 359 358 357 356 356 355 355 355 355 355 356 356 355 355 355 354 355 356 357 357 358 358 358 358 358 358 358 358 358 357 356 355 355 354 354 355 355 356 357 358 359 360 359 358 357 356 357 358 358 359 360 359 360 360 360 360 360 359 359 359 357 356 356 354 350 344 339
367 367 365 361 357 355 355 356 356 356 358 360 362 362 362 361 361 361 360 359 358 357 356 356 355 355 355 355 356 356 356 356 355 355 354 354 355 357 358 358 358 359 358 358 358 358 358 358 357 356 355 355 354 354 354 353 353 353 354 356 358 360 360 360 360 360 360 361 361 361 361 361 360 360 360 359 358 358 356 356 355 351 344 338 337
367 367 366 365 362 357 355 355 355 356 357 360 362 362 362 362 361 361 361 360 359 358 357 356 356 356 356 356 356 356 357 357 356 355 355 354 354 354 355 357 358 359 359 358 358 358 358 358 358 357 357 357 356 356 355 355 354 353 353 353 355 357 359 360 361 361 361 362 361 361 362 361 360 360 359 358 358 357 356 355 353 347 339 337 337
363 363 364 365 364 360 356 354 355 356 357 360 362 362 363 362 362 361 361 360 360 359 358 357 356 356 356 356 356 357 357 357 357 357 356 356 355 354 354 354 355 357 358 358 358 358 359 358 358 358 358 357 357 357 357 356 356 356 356 356 357 356 355 356 358 360 361 362 362 362 362 361 360 359 358 357 357 356 354 352 348 341 337 336 335
361 360 361 363 364 362 357 354 356 357 358 361 362 363 363 362 362 362 361 361 360 360 358 357 357 356 357 357 357 358 358 358 358 358 358 358 357 356 356 355 355 355 356 357 358 358 358 358 358 358 358 358 358 358 358 358 358 358 358 358 359 359 358 357 357 358 359 361 361 362 361 361 360 358 357 356 356 353 349 346 342 338 335 334 334
359 359 360 362 364 362 356 354 356 358 360 362 363 364 364 363 363 363 362 362 361 360 359 359 357 356 357 357 358 358 359 359 359 359 359 359 359 359 358 358 357 357 356 356 357 357 357 357 358 358 358 358 359 359 359 359 360 360 360 361 361 361 360 357 356 357 359 360 360 361 361 360 358 356 355 355 354 351 347 344 342 339 336 333 333
357 359 360 362 364 362 357 355 356 359 362 363 363 364 364 364 363 363 363 363 362 361 360 360 359 358 357 357 358 359 359 360 360 359 359 359 359 359 359 359 359 358 358 358 357 355 354 355 356 357 358 358 359 359 360 360 361 361 362 362 361 361 360 358 357 358 359 360 360 360 359 358 356 354 353 351 350 348 345 342 340 336 333 332 333
354 359 360 362 364 363 358 355 357 360 362 364 365 365 365 365 364 364 364 363 363 363 362 361 360 359 358 358 358 358 359 359 360 360 361 360 360 360 359 358 359 359 359 359 356 352 352 354 355 356 357 358 358 359 359 359 360 360 360 361 362 360 357 355 355 356 358 359 360 359 358 357 354 352 351 348 345 342 341 338 335 331 330 332 335
351 357 358 360 363 364 359 356 358 360 363 365 366 365 364 365 365 365 365 364 364 363 363 362 362 360 360 359 358 357 358 358 359 361 361 361 361 362 361 360 359 359 360 359 355 351 351 353 354 355 356 356 357 357 357 358 358 357 358 360 358 352 349 350 352 354 355 355 356 357 356 355 354 352 351 348 344 342 340 337 332 329 330 333 334
349 355 356 357 360 363 362 358 359 362 364 365 366 365 363 363 363 364 365 366 366 365 365 364 363 362 361 360 359 359 358 358 358 360 360 362 362 363 362 362 361 360 360 358 353 350 352 353 354 355 356 356 357 357 356 357 357 357 358 356 348 345 350 354 353 351 352 353 355 356 356 354 354 353 351 348 343 340 339 337 332 330 332 332 332
348 352 354 356 358 361 362 361 361 364 366 366 366 365 364 363 362 361 361 363 365 366 367 366 365 365 364 362 361 360 360 359 359 359 359 360 361 362 363 363 363 361 359 355 351 350 352 352 354 355 355 355 356 356 356 357 356 355 354 350 344 346 354 356 350 348 351 355 356 356 354 353 353 352 349 345 340 337 338 337 333 331 332 331 330
348 350 353 356 357 358 361 364 365 365 366 367 366 364 364 364 364 361 358 358 360 363 365 367 367 366 366 365 364 362 362 361 360 360 359 359 359 361 362 363 362 359 356 352 351 351 351 351 353 354 355 355 356 356 355 354 352 350 349 348 348 351 354 351 347 349 352 354 354 353 350 349 350 348 344 340 336 336 338 337 334 333 333 331 329
346 348 351 355 357 357 358 361 365 365 365 365 365 364 363 364 365 363 360 358 359 361 363 365 365 365 366 366 365 364 364 363 362 361 360 359 359 359 361 359 356 354 352 350 349 350 351 352 352 353 354 355 355 354 352 349 347 348 349 350 351 352 351 347 347 350 352 352 352 350 345 344 345 344 341 337 333 335 339 337 335 334 334 331 329
342 345 349 352 355 355 354 354 356 358 359 359 360 362 363 364 363 363 361 360 361 361 361 360 360 361 363 364 364 364 364 363 363 362 361 360 360 359 359 355 352 352 353 351 349 349 351 352 352 352 353 352 351 350 349 348 347 348 350 351 352 353 352 349 347 348 350 350 351 349 345 343 341 340 339 336 331 332 336 336 335 335 334 331 330
339 342 346 350 351 350 348 348 348 349 352 354 355 356 358 360 361 360 360 360 361 361 358 356 355 357 359 361 362 363 362 363 363 363 362 361 360 359 358 355 354 354 354 350 346 346 348 350 351 352 351 349 349 349 350 350 350 350 350 351 351 352 354 352 349 347 347 347 347 345 343 341 339 336 336 335 332 331 334 335 334 335 334 332 330
336 338 342 347 349 347 345 345 343 344 348 353 356 356 356 356 357 358 358 359 359 358 354 352 353 356 358 359 360 361 361 361 361 361 361 361 358 356 355 354 354 354 352 347 345 345 346 347 350 352 351 350 351 350 350 350 351 351 352 352 349 349 351 351 349 346 344 343 341 339 338 337 334 330 331 334 333 332 333 332 332 333 333 331 330
332 335 339 345 348 347 345 344 343 342 345 349 351 353 353 354 355 357 357 356 356 353 349 349 352 355 357 357 358 359 359 359 358 357 357 355 353 352 351 352 353 351 347 344 345 347 346 347 350 353 352 351 350 350 350 352 352 353 353 352 347 344 345 345 345 343 341 339 338 336 334 333 331 329 330 332 332 331 330 330 330 331 331 330 329
329 332 336 340 344 346 346 345 344 345 346 347 347 349 350 352 354 355 354 353 351 349 347 348 349 350 351 355 357 358 357 355 353 352 350 349 349 350 352 353 351 347 343 342 343 344 344 346 349 351 350 349 350 350 351 352 351 350 349 347 343 341 341 342 341 340 338 337 336 333 332 332 332 330 330 330 330 330 330 331 330 331 330 329 328
326 328 331 335 340 344 346 346 346 347 348 347 348 349 351 352 352 352 351 350 348 346 345 344 344 345 347 350 354 356 354 351 349 347 346 346 346 347 348 347 345 343 341 340 341 342 343 344 346 346 345 345 346 347 348 347 347 345 342 341 339 339 339 339 338 336 335 334 332 331 332 333 332 330 329 328 329 330 330 330 329 329 328 328 327
324 325 327 330 334 339 342 345 347 348 348 348 348 350 351 352 351 349 348 346 343 341 339 338 340 342 344 346 350 352 350 347 345 343 341 340 340 338 337 337 336 336 335 335 336 337 339 339 338 338 338 337 337 338 339 340 340 340 338 337 335 334 334 333 333 333 333 332 330 331 332 331 330 329 328 328 328 329 328 328 328 327 327 327 327
322 323 324 325 328 331 334 337 341 344 346 347 348 348 349 348 347 345 342 339 338 337 335 333 334 336 338 341 345 346 342 338 337 334 332 330 330 328 327 326 327 327 328 328 329 330 331 331 331 330 331 331 331 331 332 332 333 333 333 333 331 330 329 330 330 330 331 330 330 331 331 330 328 328 327 327 327 327 327 327 327 327 327 327 327
319 320 321 322 323 325 327 329 332 335 336 338 339 339 340 339 338 338 337 335 333 333 331 330 331 331 332 335 337 335 330 328 327 324 322 321 320 318 318 318 318 319 321 321 322 323 325 325 325 325 325 326 327 328 328 328 329 329 329 329 328 328 327 327 328 328 329 329 329 329 329 328 327 326 326 326 327 326 326 326 326 326 326 326 326
316 317 318 320 321 321 322 324 325 327 328 329 330 330 331 331 332 332 332 330 329 327 326 325 326 325 325 325 326 325 322 320 318 316 314 313 312 311 312 312 313 314 314 315 317 319 320 320 320 321 321 322 324 325 325 326 326 326 326 326 326 326 326 325 325 325 326 327 326 326 326 325 325 325 324 324 324 324 324 324 324 324 324 323 323
315 315 315 316 317 318 319 320 320 322 322 323 323 323 324 325 325 325 325 323 322 322 321 320 320 319 318 317 316 316 315 313 312 310 309 308 307 307 308 308 310 310 310 311 313 315 316 316 316 316 315 316 317 319 320 321 323 323 324 325 325 324 323 322 322 322 323 323 323 323 323 323 323 323 323 322 322 322 322 322 322 321 321 321 321
312 312 312 313 314 315 315 316 317 317 318 318 318 317 317 317 317 317 317 316 315 315 315 314 314 314 313 312 311 310 310 308 307 306 305 304 304 303 304 305 305 305 305 306 308 309 310 311 312 311 310 311 312 312 313 315 317 319 320 321 321 320 319 320 320 320 321 321 321 321 322 322 321 321 321 321 321 321 320 320 320 320 319 319 319
310 310 311 311 311 311 312 313 313 314 314 314 314 314 314 314 313 313 313 312 312 311 311 311 310 310 309 309 308 307 306 305 304 303 302 301 301 301 301 301 301 301 300 301 302 303 304 306 307 307 308 309 309 309 309 310 312 314 316 317 317 317 318 318 319 319 320 320 321 321 321 320 320 319 319 318 318 318 317 316 316 316 316 317 317
309 309 309 309 309 309 309 309 310 310 311 311 311 311 311 311 311 311 311 310 310 310 309 309 308 308 307 306 306 305 304 303 302 301 300 300 299 299 299 298 298 298 298 298 297 298 300 301 302 303 304 305 306 307 307 307 308 309 311 312 313 314 315 316 316 317 317 318 318 319 319 317 316 314 313 313 312 312 310 309 309 310 310 311 311
308 308 308 308 308 307 307 307 307 308 308 308 308 308 309 308 308 308 308 308 308 307 307 307 306 306 305 305 304 303 302 302 301 300 299 299 298 298 297 297 297 297 297 297 297 298 298 299 300 300 300 301 302 303 305 305 306 306 307 308 310 311 312 312 312 313 313 314 314 314 313 312 310 309 307 307 306 306 305 304 305 305 305 304 304
307 307 307 307 306 306 306 306 306 306 306 306 306 306 306 306 306 306 306 306 306 305 305 304 304 304 303 303 302 302 301 300 300 299 298 297 297 296 296 296 296 296 296 296 296 296 296 297 297 297 297 298 298 299 302 304 305 305 305 306 307 307 308 307 307 307 308 309 309 308 308 307 306 304 303 302 302 302 302 302 302 302 302 302 302
Wind_Speed
42 41 41 41 41 41 42 43 42 41 40 40 41 42 41 40 39 37 36 35 34 33 31 30 29 29 28 28 28 28 27 26 26 26 26 26 25 24 23 22 22 22 21 20 18 18 18 17 17 14 13 12 12 11 11 10 9 10 9 9 10 10 11 12 11 13 16 15 13 11 10 12 13 14 15 17 17 17 17 16 16 17 18 18 19
42 41 40 39 40 40 41 42 42 41 40 39 40 41 42 42 41 39 38 38 37 36 34 32 31 31 31 30 29 30 30 28 26 26 27 27 26 25 25 23 22 21 22 22 21 20 19 19 19 16 15 14 14 13 14 13 12 12 12 12 12 12 13 14 14 14 16 17 15 14 13 14 16 17 19 20 20 20 19 18 17 17 18 18 19
42 41 40 40 40 39 39 39 40 41 41 40 40 41 41 42 41 40 39 39 38 37 35 33 31 31 32 32 31 30 31 31 29 27 28 29 28 27 27 26 24 23 23 23 23 22 21 20 20 18 17 17 17 17 17 16 15 14 15 15 15 16 15 16 17 16 17 19 18 17 16 16 19 20 20 21 21 21 20 20 19 19 19 20 20
40 40 41 41 41 39 38 38 38 39 41 41 41 41 41 41 40 40 40 39 38 38 37 34 33 32 33 34 33 32 32 33 32 30 30 30 29 28 28 28 27 26 25 24 23 22 23 23 22 20 19 19 20 19 18 18 18 18 17 17 17 17 17 18 20 19 19 19 20 19 19 19 21 22 22 23 22 21 21 21 21 22 22 21 20
39 39 40 40 40 40 40 38 38 39 40 41 41 42 41 40 40 40 40 39 38 38 38 37 36 35 35 35 36 35 35 35 34 33 32 32 31 30 29 29 29 28 28 27 25 23 23 24 23 22 21 20 21 21 20 19 19 19 19 19 18 17 16 17 19 20 21 22 23 22 20 20 23 24 23 23 24 24 23 22 22 23 23 19 15
39 38 39 38 38 40 41 40 39 40 40 40 41 41 41 41 40 40 40 39 38 38 39 39 38 38 37 37 37 37 37 36 36 36 35 34 33 31 30 30 30 30 29 29 28 26 26 25 24 24 23 23 22 22 21 20 20 20 20 20 19 18 17 17 17 18 21 22 23 22 21 22 24 25 24 23 23 24 24 23 23 23 20 14 8
38 38 38 38 38 39 40 41 41 40 40 41 41 40 41 41 40 40 41 40 39 38 38 39 40 39 39 38 39 39 38 38 37 37 36 35 34 33 32 32 31 31 30 30 29 29 28 27 25 24 25 25 25 24 23 22 21 21 21 21 20 19 19 18 18 18 19 20 20 21 22 23 24 26 26 24 22 22 21 21 22 23 17 9 8
37 37 37 37 37 38 39 40 40 41 40 40 40 40 40 40 41 41 40 40 40 40 39 39 40 40 40 40 40 40 40 40 39 38 37 36 35 34 34 34 33 32 31 31 30 30 30 29 28 26 25 25 26 27 26 25 24 23 23 22 22 21 21 21 20 20 19 19 20 21 22 24 25 27 27 25 21 20 18 16 20 21 15 10 12
36 36 36 36 38 38 38 38 38 39 39 39 40 40 40 40 40 40 40 40 40 40 40 39 39 39 40 41 40 40 40 41 41 40 39 38 36 36 35 35 35 34 33 32 31 31 31 30 30 29 28 26 25 26 26 26 25 25 25 24 23 23 23 23 22 22 20 19 20 20 21 23 26 26 27 25 20 18 17 16 16 16 14 14 16
36 35 35 36 37 37 36 36 37 37 38 39 40 40 40 39 39 40 40 40 40 40 39 39 38 39 40 40 41 40 40 41 42 42 41 40 38 37 36 36 36 35 34 33 33 32 31 31 31 30 29 28 27 26 26 26 26 26 26 25 25 25 25 25 24 23 22 19 19 19 18 22 27 26 26 25 20 17 17 15 13 12 14 17 17
34 35 35 35 35 35 36 36 37 37 38 39 40 40 40 39 39 39 39 40 40 39 39 39 39 39 40 41 41 41 41 42 43 44 43 42 40 38 37 36 36 36 35 35 34 34 33 32 32 32 31 30 29 28 27 27 27 27 28 28 27 27 26 26 26 25 23 21 21 20 18 23 28 28 26 26 21 16 14 12 11 12 14 14 14
32 33 33 33 34 36 38 38 38 39 39 40 41 41 40 39 38 38 39 39 39 39 39 39 39 39 39 40 41 41 41 42 43 44 44 44 42 40 38 37 36 36 36 36 36 36 35 34 33 33 33 32 31 30 29 28 27 28 29 30 30 29 28 28 28 27 25 24 23 23 22 25 29 30 27 25 20 15 11 10 12 14 13 12 11
31 31 31 33 36 39 40 39 40 40 40 41 41 40 40 40 39 39 39 39 39 39 39 40 40 40 39 39 40 41 42 43 44 45 45 44 44 42 40 38 36 36 36 37 37 37 36 36 35 34 34 33 32 31 30 29 28 28 29 30 31 32 31 30 29 28 28 27 26 26 27 26 28 30 28 25 22 18 15 14 15 15 14 12 11
30 32 32 34 38 38 37 36 38 39 40 40 40 40 40 40 40 40 38 38 38 38 39 40 40 41 41 40 40 40 42 44 45 45 45 44 43 43 42 39 37 37 37 37 37 38 37 36 36 36 35 34 33 32 31 31 30 29 30 31 32 33 33 34 32 31 30 30 29 30 30 28 29 32 31 28 26 22 19 18 17 15 13 11 11
31 33 36 37 37 37 36 36 36 37 38 39 39 40 40 40 41 40 38 37 38 38 39 40 40 41 42 41 40 40 41 43 44 45 46 45 43 43 42 40 38 37 37 38 38 39 38 38 38 38 37 36 35 33 32 31 31 31 32 32 32 31 32 33 33 32 32 32 32 33 32 31 30 31 31 30 28 24 20 18 15 13 12 11 11
33 35 37 39 39 39 40 39 37 37 38 39 40 40 41 41 40 40 38 37 37 38 38 39 40 40 41 41 40 40 41 42 43 45 45 45 44 43 42 41 38 37 37 38 39 40 39 39 39 39 38 38 37 35 33 32 32 33 33 33 32 31 31 30 30 31 31 31 32 32 31 29 28 28 27 27 27 24 20 16 14 12 12 12 11
31 36 38 39 40 42 42 40 38 37 37 38 40 41 41 40 40 39 38 37 37 37 37 38 39 39 40 41 41 41 41 41 43 44 45 44 44 43 42 41 38 38 39 40 40 41 41 40 40 39 39 39 38 37 34 33 33 33 32 32 31 31 31 31 30 30 31 31 31 30 29 27 24 23 23 24 26 25 20 16 16 14 12 12 10
28 33 36 38 40 41 42 40 38 36 36 38 39 39 39 39 39 39 38 38 38 37 37 37 37 38 39 40 41 41 41 41 43 44 45 44 44 43 42 40 39 39 40 41 41 41 41 41 41 40 40 40 39 38 35 34 35 35 34 32 30 31 33 33 30 29 28 28 28 27 26 25 22 22 22 24 26 26 23 20 19 16 14 13 11
31 33 35 36 37 39 40 39 37 36 37 38 39 38 39 39 38 39 39 39 38 37 36 35 36 37 38 39 41 42 41 41 42 43 44 44 44 44 42 40 38 39 40 40 40 41 41 42 41 41 41 41 39 38 36 36 36 37 36 33 30 32 35 34 31 29 27 25 26 25 24 22 21 21 23 24 25 26 24 23 20 17 16 15 12
37 37 37 37 37 38 38 37 37 37 37 37 38 38 37 37 37 37 38 38 37 36 35 35 35 36 37 37 39 41 41 40 41 42 43 43 44 44 43 40 39 39 40 40 39 39 40 41 41 41 42 42 40 39 38 37 37 38 37 34 33 34 35 32 30 29 27 25 24 23 21 20 20 22 23 23 22 21 20 18 16 15 16 15 13
35 37 37 37 38 38 38 37 37 38 38 36 35 35 36 35 36 37 36 36 35 35 35 34 34 35 36 36 37 39 41 41 41 41 42 43 44 44 44 42 41 41 40 40 39 38 38 39 41 42 42 42 41 40 39 38 38 38 37 37 37 36 34 31 29 27 24 22 20 19 18 19 20 21 21 20 18 16 14 13 12 13 14 13 14
25 31 34 36 36 37 38 38 38 38 36 34 33 34 35 35 35 35 35 34 35 35 35 34 33 32 33 35 37 39 40 41 42 42 42 42 43 44 45 45 44 43 40 39 38 38 39 40 41 41 42 42 42 40 38 36 35 35 37 38 38 37 34 32 29 26 22 20 18 18 17 18 19 20 20 17 15 12 10 10 10 11 11 11 11
20 24 29 33 35 37 38 38 39 37 34 33 34 35 35 35 34 34 34 33 33 33 34 33 31 30 31 33 36 38 39 40 42 43 43 42 42 43 45 46 47 45 42 40 40 41 41 42 42 41 41 42 42 42 40 38 35 34 35 35 34 35 34 32 30 27 23 20 18 18 19 20 20 21 20 17 14 12 10 9 9 9 9 9 9
20 21 24 29 33 36 37 37 38 38 35 34 35 35 34 34 33 33 34 33 32 31 32 32 31 29 29 31 33 36 38 39 41 44 45 44 42 42 44 45 47 48 45 43 42 42 41 42 43 42 41 41 42 42 42 41 41 40 38 35 33 33 32 31 30 27 23 20 19 20 22 23 23 23 21 18 15 13 11 9 8 8 9 8 7
22 22 23 26 30 34 35 35 36 37 36 35 35 35 35 34 33 33 33 32 31 31 30 31 31 30 29 30 32 34 36 37 38 42 45 46 45 44 43 43 45 48 48 46 44 43 43 43 43 42 42 41 40 39 39 40 39 38 36 34 33 33 32 31 29 26 23 22 22 24 25 26 26 24 21 18 16 14 12 10 10 10 9 8 7
25 26 25 26 28 31 33 34 34 35 36 36 36 36 36 35 34 33 32 32 32 31 30 30 31 30 30 31 32 33 33 34 36 39 43 45 47 47 46 45 44 45 47 48 47 46 44 43 42 41 41 40 38 38 37 36 34 32 31 30 31 32 31 30 28 26 25 25 26 27 28 27 25 21 19 17 16 15 13 13 13 13 11 10 9
25 26 27 27 27 28 32 34 34 33 34 35 35 35 35 36 35 33 33 33 32 31 31 31 31 31 32 32 31 30 31 32 35 37 40 43 45 46 47 45 44 44 46 48 49 47 44 41 40 39 38 37 36 35 34 33 31 29 29 30 30 30 30 29 28 28 28 29 29 28 27 25 23 20 18 18 16 14 14 15 15 14 11 9 11
24 26 27 28 27 26 31 34 34 33 33 34 34 33 34 35 35 35 37 37 34 32 32 32 32 33 32 31 29 28 29 32 35 38 40 43 45 45 45 45 45 46 47 48 48 46 42 38 37 35 34 34 34 34 33 32 31 30 29 30 30 29 28 27 26 27 29 29 28 26 25 24 23 19 16 15 15 14 14 14 14 13 10 9 12
26 26 25 26 26 26 29 32 33 32 32 34 35 36 37 38 37 38 40 42 42 40 38 36 36 36 34 32 31 29 29 34 40 43 43 43 44 45 46 46 47 47 48 48 47 43 38 36 34 33 32 33 33 33 32 31 29 28 27 27 26 27 28 27 27 28 29 28 27 26 25 23 19 15 14 14 14 14 12 11 11 11 10 11 14
26 25 23 23 25 25 27 30 31 32 32 32 32 33 34 38 40 39 40 43 45 46 43 41 40 39 36 36 37 36 37 40 41 40 41 43 44 45 46 47 47 47 47 46 42 37 33 32 32 33 33 32 32 31 30 28 26 23 22 21 23 23 22 21 23 25 26 27 26 24 22 20 16 15 15 15 14 13 12 10 10 10 11 13 15
25 24 22 23 25 25 26 28 29 31 32 31 31 30 30 32 36 38 39 40 42 44 43 42 41 40 38 38 38 40 42 41 37 35 37 40 42 44 45 45 45 44 45 43 39 35 32 31 32 33 33 32 32 32 30 28 25 23 21 20 17 15 13 15 20 24 24 23 22 21 21 20 18 18 18 18 16 15 13 12 11 12 14 15 14
24 24 23 23 25 25 26 28 27 28 28 27 28 30 29 28 30 33 35 36 37 40 41 40 40 40 40 40 39 38 39 40 38 35 35 37 40 42 43 43 44 44 43 41 37 34 34 33 32 33 34 34 34 33 29 27 26 25 23 19 14 12 16 23 26 26 23 20 21 24 25 24 22 21 21 20 18 16 16 15 14 14 14 12 11
23 24 23 21 23 22 23 26 26 25 27 29 31 33 33 30 28 27 27 28 31 34 37 39 40 40 40 41 41 40 39 39 39 37 35 34 36 37 38 40 42 43 41 38 35 34 35 35 34 34 34 34 33 32 29 27 25 21 19 16 16 15 23 28 26 25 23 23 27 31 29 26 24 22 21 20 17 16 18 18 16 14 13 11 10
21 22 20 18 19 20 18 22 28 30 32 34 35 35 35 34 31 27 24 22 23 26 31 36 40 40 40 40 40 40 40 38 38 38 37 36 34 32 33 36 39 39 39 39 37 35 34 33 33 35 35 34 34 32 27 21 15 13 16 19 20 21 26 25 24 26 26 26 29 29 25 23 23 21 20 19 17 17 18 18 17 15 14 12 11
17 19 18 17 18 18 17 17 23 29 32 34 36 35 34 33 32 29 28 26 24 25 29 34 36 37 38 39 38 38 38 38 37 37 37 37 35 32 30 32 34 35 36 37 36 34 33 33 34 37 38 36 31 22 14 9 11 15 23 26 25 24 26 24 24 25 25 26 26 24 22 21 21 20 20 20 19 19 20 19 19 17 16 14 14
15 16 17 18 19 18 16 13 9 11 14 17 22 28 32 32 31 29 28 28 27 26 27 29 29 30 32 34 34 34 35 36 36 36 36 37 37 35 33 32 32 33 37 39 37 34 33 33 34 35 32 24 15 10 11 15 18 23 28 29 28 27 28 27 25 24 24 24 24 22 21 21 20 19 19 19 20 21 21 19 19 19 18 17 15
15 15 16 18 18 14 9 10 10 6 8 9 8 9 12 15 20 23 26 26 26 26 26 26 25 24 25 27 29 30 31 32 33 34 35 35 36 37 37 36 34 36 37 32 23 21 24 26 27 27 20 12 12 18 23 26 25 25 28 30 29 27 26 26 26 25 23 23 22 21 22 22 20 20 20 18 18 19 19 18 18 19 19 19 17
17 15 15 17 18 13 7 8 14 16 16 19 20 16 12 11 14 19 22 24 24 24 24 24 24 25 26 26 26 26 26 27 28 30 31 33 34 35 34 33 33 35 33 22 14 19 28 28 24 21 16 14 20 26 25 23 23 23 24 25 23 22 23 25 25 24 23 22 22 21 20 19 19 18 18 17 16 17 18 17 16 17 19 20 17
20 16 14 14 15 15 15 17 20 20 19 20 23 25 24 22 21 22 23 23 23 21 21 23 24 26 27 27 24 22 21 20 21 23 24 25 27 27 26 26 26 27 26 22 19 25 29 24 19 17 14 14 19 21 19 19 19 19 20 20 18 18 21 24 25 25 24 23 20 18 18 19 18 16 16 16 16 17 17 15 14 16 19 18 15
22 18 16 12 11 17 21 24 25 24 23 23 24 23 23 22 23 23 23 22 21 20 20 21 21 20 22 25 25 23 19 17 16 16 16 16 16 16 16 17 17 18 22 24 22 19 18 16 14 13 11 12 15 17 16 16 17 16 17 17 16 17 20 23 25 25 24 22 19 18 19 20 19 16 15 14 14 16 16 15 14 16 18 16 13
24 20 18 14 8 15 22 25 26 27 28 30 30 28 26 25 23 21 19 18 18 17 16 15 14 15 17 21 25 26 23 19 17 17 16 15 15 14 13 12 12 14 17 20 18 15 15 15 13 12 12 12 13 15 15 15 16 16 15 16 17 19 21 23 23 22 21 20 19 19 20 21 21 19 16 13 11 13 15 14 14 15 16 14 11
25 22 20 17 9 3 11 18 23 27 27 27 27 27 27 25 24 21 18 18 19 19 17 15 14 14 16 19 25 28 27 24 22 21 19 18 18 17 17 17 17 18 19 20 19 19 19 19 18 18 18 18 17 17 17 18 18 19 20 21 21 21 20 19 19 19 18 18 19 19 19 20 19 18 16 13 12 13 14 14 13 13 12 10 8
25 23 21 18 15 10 6 3 9 15 19 21 22 22 23 25 26 26 25 24 24 25 24 24 23 23 22 24 28 31 30 28 26 25 23 23 23 22 22 22 22 22 23 23 23 23 23 22 22 21 21 20 19 19 20 20 20 21 23 24 23 22 20 18 18 17 16 17 18 18 17 17 17 16 15 14 14 14 13 12 11 10 9 7 6
26 25 23 21 19 18 17 15 13 14 15 14 15 17 22 25 28 30 31 29 28 29 29 29 29 29 28 28 31 34 33 31 29 28 27 26 26 26 26 26 26 26 27 26 26 26 25 25 25 24 24 22 21 21 21 21 21 22 23 24 24 22 20 19 18 18 17 17 18 17 17 17 17 16 15 14 13 13 11 10 9 7 6 4 3
27 27 25 23 22 21 22 21 19 21 25 25 23 23 23 25 27 30 30 27 25 25 25 25 25 26 25 26 31 35 35 33 31 30 30 30 30 30 30 30 30 30 30 30 29 28 28 29 29 28 28 27 25 24 23 23 22 22 22 21 21 21 20 19 19 18 18 19 19 18 18 17 16 15 14 12 10 9 8 7 6 5 4 3 2
27 27 27 25 23 22 22 23 22 22 25 26 26 24 23 24 26 28 28 25 24 25 26 26 26 26 25 25 28 32 34 34 33 33 32 33 33 33 33 33 34 34 33 33 32 32 32 32 32 32 32 30 28 27 25 24 23 22 21 20 20 19 19 18 17 17 17 17 17 16 16 15 14 13 11 10 9 9 8 7 6 5 4 4 4
28 28 27 25 23 23 24 24 24 24 24 25 26 26 25 26 29 31 30 29 28 29 29 29 29 30 30 29 30 32 34 34 33 34 34 34 34 34 35 36 37 37 37 36 36 35 35 35 35 35 34 33 31 29 27 25 23 22 22 21 20 19 17 16 15 15 15 15 15 15 15 14 14 12 11 10 10 9 8 7 7 5 5 4 4
29 28 25 23 23 25 25 25 24 24 25 25 26 27 27 28 30 32 33 32 32 32 31 30 31 32 33 33 33 34 35 34 33 34 36 36 36 36 37 38 39 39 40 39 38 37 36 36 35 35 34 32 31 30 28 27 25 24 23 22 20 19 17 16 16 16 16 15 15 14 14 14 14 13 12 11 10 9 8 8 7 6 5 4 5
29 26 24 24 25 26 27 26 25 24 24 25 26 27 27 27 28 30 32 33 33 33 32 31 30 31 32 34 35 36 36 35 34 34 35 35 35 35 35 36 38 39 40 40 39 37 36 35 35 34 33 32 31 30 29 28 27 26 25 24 22 19 18 17 17 16 16 15 15 14 14 14 14 14 13 13 11 10 10 10 9 9 8 8 8
28 26 25 25 26 27 28 28 27 26 27 28 27 26 27 28 28 29 31 33 34 34 33 32 31 31 32 33 35 36 36 34 33 33 32 32 33 33 35 36 38 39 39 38 37 35 34 33 32 32 31 30 29 28 28 27 27 25 24 22 20 19 17 17 16 15 15 15 15 14 14 14 15 14 14 13 12 12 12 12 12 12 12 12 12
27 27 26 26 26 27 27 27 27 27 29 31 30 28 27 27 27 28 29 31 33 35 35 34 33 33 33 34 35 36 36 34 32 32 32 33 34 36 37 37 37 37 37 37 36 35 34 33 32 31 30 29 28 27 26 25 24 22 20 19 18 17 16 16 16 15 14 14 14 14 13 13 14 14 13 12 12 12 12 12 12 12 11 11 11
Wind_Direction
198 200 202 204 205 206 206 207 207 206 206 206 207 208 208 209 209 209 210 212 213 214 216 219 220 222 224 225 226 225 223 222 223 225 227 231 233 233 230 227 227 227 224 224 225 227 230 229 229 230 228 227 225 226 235 239 236 235 242 252 243 235 242 238 236 261 280 292 296 301 312 315 312 311 312 313 316 319 320 320 320 318 319 322 324
198 199 202 204 207 208 208 208 207 207 207 208 208 210 210 211 213 213 214 215 217 217 218 220 221 224 226 228 229 229 227 225 226 227 228 231 233 232 230 229 229 226 223 224 224 226 230 231 229 228 227 228 226 225 232 236 234 235 237 244 248 244 241 243 243 252 274 290 299 305 310 312 310 313 317 316 319 324 325 328 329 326 325 324 321
198 199 201 204 207 210 210 209 209 208 208 209 210 210 211 212 213 214 215 217 218 219 219 218 218 221 225 228 229 229 228 227 228 229 230 232 233 232 230 230 231 229 227 227 226 227 229 229 227 226 227 230 230 229 233 235 235 238 241 245 251 252 249 248 247 248 262 280 292 298 302 306 308 311 314 314 316 321 323 326 327 326 325 322 318
199 199 200 203 205 208 211 212 211 210 210 210 211 212 213 214 214 214 216 216 217 219 220 219 217 218 222 224 227 228 228 228 229 231 232 233 234 234 233 232 232 233 232 232 231 229 229 228 227 228 231 234 234 234 236 237 237 238 241 245 251 256 256 253 253 254 259 268 279 286 294 300 303 307 310 311 313 317 319 322 325 325 325 323 321
198 199 200 203 204 205 209 211 212 213 213 212 213 214 214 215 215 215 216 217 217 218 219 219 220 220 221 222 225 227 228 229 229 231 232 233 235 236 236 235 235 236 236 236 235 234 232 231 230 230 233 235 235 235 238 240 240 240 241 244 248 254 258 257 257 259 258 261 271 281 289 295 298 301 304 307 310 314 316 319 323 325 324 326 326
197 199 201 202 204 206 207 209 212 214 215 215 215 216 216 217 217 217 217 217 218 218 218 219 220 221 222 223 224 226 228 229 230 231 232 232 233 236 238 239 239 239 240 239 238 239 238 236 235 234 234 235 236 236 238 242 243 242 242 245 249 253 255 256 258 260 259 261 268 276 285 291 294 297 301 305 308 310 312 317 323 327 326 327 328
197 198 200 202 205 207 208 208 210 213 216 217 217 217 218 218 219 219 219 218 218 218 219 219 220 221 223 224 225 227 228 230 231 232 232 232 232 234 237 239 240 241 242 241 240 241 242 241 240 239 237 236 236 236 239 242 243 244 245 247 250 254 257 258 259 260 261 264 268 275 283 289 291 293 298 302 302 304 310 316 323 328 326 321 328
197 197 199 202 205 208 210 210 211 213 215 218 219 219 219 219 220 221 221 220 220 219 219 220 220 221 223 225 226 226 227 228 230 232 233 233 232 233 235 237 239 241 242 244 243 243 244 245 245 245 243 241 239 238 239 242 244 246 249 251 252 254 257 259 259 259 261 265 269 275 282 286 288 291 294 297 298 303 313 317 318 321 320 322 337
196 198 199 203 206 209 210 211 212 214 215 217 219 220 221 221 221 222 222 222 222 221 221 220 221 221 222 224 226 226 226 227 228 230 232 233 232 233 234 234 236 238 240 243 245 245 245 246 248 249 249 248 246 242 241 242 245 248 250 251 252 254 257 259 259 259 260 262 266 272 277 281 285 288 291 295 299 307 315 316 312 313 318 326 340
196 198 200 204 207 208 210 211 212 213 215 216 218 220 221 222 222 222 223 223 223 223 222 221 221 221 222 223 224 225 225 226 228 230 232 233 233 232 232 232 233 235 237 240 243 244 245 246 247 250 251 252 252 249 246 245 247 249 250 251 252 253 256 257 259 261 261 262 265 269 274 278 282 285 288 293 300 308 313 312 306 311 322 331 339
196 198 202 205 206 208 209 211 212 213 214 216 217 219 220 221 222 222 223 224 224 223 222 221 221 222 222 223 223 224 224 226 228 230 232 233 233 232 231 232 232 232 234 237 240 243 244 245 247 249 250 252 253 252 251 250 250 250 251 252 252 253 254 255 257 260 261 262 266 268 269 273 281 286 288 293 301 309 312 310 306 315 329 335 335
197 199 202 204 206 208 209 210 211 212 213 215 216 218 219 220 221 222 222 223 224 223 222 222 222 222 222 223 223 224 225 227 229 230 232 233 233 232 231 231 231 231 233 235 238 241 243 244 246 248 249 251 252 252 253 253 252 252 253 253 254 254 254 254 256 258 259 260 264 266 267 271 280 285 288 294 302 307 309 306 306 314 324 327 321
199 200 202 204 206 209 209 209 210 211 212 214 215 216 217 218 220 221 222 223 223 223 223 222 222 222 222 223 223 224 226 227 229 230 232 233 232 232 231 231 232 232 233 234 237 239 241 243 245 246 248 250 251 251 253 254 253 253 254 257 257 256 256 255 256 258 260 261 261 264 268 272 277 284 289 294 297 299 301 301 303 307 311 312 309
202 202 203 206 209 208 207 209 211 211 211 212 213 214 215 217 219 220 222 222 222 223 223 222 222 222 222 223 224 225 226 228 229 230 231 233 233 232 231 232 233 234 234 235 237 239 240 241 243 245 247 247 247 248 250 252 253 253 256 259 260 259 257 256 255 255 257 258 259 263 269 272 276 285 292 294 293 295 297 298 302 303 302 302 300
203 205 206 209 211 209 208 210 212 212 212 211 211 213 214 216 218 219 220 221 222 223 224 223 223 222 222 222 223 225 227 228 229 230 231 233 233 233 231 231 232 234 236 237 238 240 241 242 243 245 246 247 247 247 247 248 250 253 256 258 261 261 260 258 257 255 255 257 260 264 270 275 279 288 294 294 292 294 296 298 300 298 295 294 295
205 206 209 210 212 213 213 212 212 212 211 210 210 212 213 215 216 217 218 221 222 224 224 224 224 223 222 222 222 225 228 229 230 230 231 232 233 233 231 230 231 234 236 238 240 242 242 242 243 244 246 248 249 249 248 248 249 252 255 258 260 262 263 262 260 259 258 260 262 267 272 277 283 288 290 291 290 291 293 292 290 286 286 289 292
210 208 211 213 214 216 217 215 213 212 211 209 210 211 212 213 215 215 216 218 221 223 224 225 225 224 222 221 222 224 227 228 229 230 231 232 232 231 230 229 231 234 237 239 241 242 243 243 243 244 246 248 250 251 250 248 248 249 252 254 257 260 263 264 263 262 261 261 264 268 271 275 280 282 282 284 286 286 282 276 275 278 280 284 288
224 215 214 215 216 217 218 218 215 212 212 212 212 212 212 213 214 214 214 217 220 222 224 225 225 225 223 222 222 223 226 228 229 230 231 231 230 230 229 229 230 233 237 240 241 242 243 244 244 245 246 249 250 251 250 248 246 247 249 251 253 257 260 262 264 263 263 263 264 266 267 271 273 273 276 281 282 280 273 268 271 273 271 271 274
235 228 223 221 220 219 219 218 216 215 215 214 214 214 214 213 213 213 214 216 219 221 222 224 225 225 224 224 223 224 226 228 229 230 231 231 230 229 228 227 229 232 235 238 241 242 243 245 245 245 247 250 251 251 251 249 247 248 249 248 248 252 256 259 261 262 263 263 264 266 267 268 266 267 274 280 279 275 270 266 267 264 260 262 259
235 234 231 228 226 223 221 218 216 217 218 217 216 215 215 214 213 213 213 215 217 219 220 222 224 225 224 224 224 224 225 227 229 230 230 230 230 228 226 225 227 231 234 237 239 240 242 243 244 245 246 249 251 251 251 250 248 249 248 244 244 249 254 256 258 260 261 261 264 266 265 264 265 270 275 277 274 271 267 263 261 256 255 255 239
242 240 236 233 230 227 224 220 219 219 220 218 217 216 215 214 214 213 212 213 214 217 219 220 222 224 225 224 224 224 225 226 229 230 230 230 229 228 225 225 227 230 233 235 237 238 240 241 243 244 245 246 248 249 249 248 248 249 248 245 247 251 253 254 255 257 258 258 258 258 258 263 268 271 272 270 268 267 262 255 253 250 247 239 220
262 253 245 238 233 230 227 223 221 221 220 218 215 215 215 215 214 213 212 212 213 215 217 219 221 223 224 224 224 225 225 226 228 230 230 229 229 228 226 227 229 230 231 234 236 237 239 241 243 245 245 244 245 246 247 247 246 247 248 249 251 252 252 253 255 255 254 253 252 252 254 259 262 263 264 265 266 265 257 247 245 241 230 218 207
284 271 259 250 242 235 229 225 222 221 220 217 214 214 213 213 213 213 212 211 212 214 215 217 219 221 222 223 224 225 225 225 226 229 230 230 229 228 228 230 231 230 230 232 236 238 239 241 244 247 247 246 246 246 246 247 246 247 248 249 250 251 251 251 253 253 252 251 247 248 251 253 254 256 259 264 268 267 259 250 240 224 205 193 198
294 284 274 265 254 244 235 228 223 221 219 217 214 213 211 210 210 210 210 210 211 213 214 215 216 218 220 222 223 224 224 224 225 227 229 230 229 228 228 230 232 232 231 233 236 239 241 243 246 249 250 249 250 250 250 251 251 252 253 252 251 250 249 249 250 251 250 246 243 245 250 252 254 256 260 268 276 273 262 248 227 204 185 178 186
298 293 286 276 265 254 243 233 226 222 218 215 212 211 209 207 207 207 208 208 209 211 213 213 214 217 219 221 223 223 223 223 224 226 228 229 230 231 230 231 232 232 232 235 238 240 243 246 249 252 253 253 253 253 253 254 255 257 259 259 256 253 249 248 248 248 245 243 243 246 251 255 258 262 268 276 277 265 247 223 197 183 176 172 169
298 298 295 287 274 259 247 237 229 223 218 214 212 211 208 205 204 204 205 206 208 211 211 211 213 216 218 221 222 222 221 221 222 225 227 228 230 232 233 234 235 235 235 238 241 243 245 248 250 252 254 255 255 255 256 257 258 259 260 260 258 255 251 248 246 244 243 244 246 249 254 259 262 267 273 274 265 249 229 204 183 176 177 174 159
296 296 297 296 283 260 243 235 229 222 217 213 212 211 208 205 203 202 202 204 207 209 210 210 212 214 218 221 222 221 220 220 221 223 225 226 228 230 232 234 235 236 236 238 240 242 243 246 249 251 254 255 256 257 257 257 257 256 256 257 257 257 255 252 248 245 245 247 249 252 256 261 265 266 267 263 250 227 205 193 183 179 181 174 155
299 297 297 299 290 264 240 230 224 219 214 211 209 207 206 204 203 203 204 204 205 206 208 210 212 214 217 219 219 220 220 220 221 222 223 225 226 226 228 231 234 234 235 237 239 240 240 243 247 249 251 252 253 253 253 252 252 251 253 254 255 255 254 250 246 244 245 247 249 252 256 261 264 261 253 246 233 212 201 200 197 194 196 188 165
303 300 300 301 294 271 242 227 220 215 211 209 207 206 205 204 204 207 209 209 209 209 209 210 213 215 217 217 217 217 219 222 224 224 224 225 226 226 227 230 232 234 236 239 239 237 237 240 244 245 246 247 247 247 246 245 245 245 246 248 250 250 248 242 238 240 242 244 247 251 254 257 257 248 234 225 218 211 210 210 203 197 197 187 170
304 301 303 305 298 275 245 227 218 212 209 206 204 204 205 206 206 208 210 212 214 213 212 213 214 215 217 219 219 220 222 226 228 227 226 228 230 230 232 234 235 236 238 238 236 233 234 237 239 240 241 241 240 240 239 237 236 234 235 239 243 242 240 237 236 239 241 243 245 248 249 250 245 235 227 220 211 208 208 204 196 190 182 173 166
305 302 304 307 303 281 250 229 218 212 208 204 198 195 196 201 206 210 211 213 214 215 215 217 218 217 218 220 222 225 228 230 232 231 230 231 233 234 235 237 238 239 239 237 232 227 229 232 234 237 238 238 238 238 235 232 230 227 228 230 228 223 224 232 236 235 234 236 241 244 244 243 238 233 229 222 215 212 205 194 188 184 176 169 165
303 301 305 313 312 289 253 230 218 211 204 198 193 190 190 194 201 207 210 211 212 214 216 218 220 221 222 223 224 226 228 230 231 232 233 233 235 236 236 237 239 240 239 235 229 226 227 228 230 233 234 235 237 236 233 230 227 225 225 217 193 193 231 242 238 230 225 226 233 237 237 234 231 230 227 222 219 215 202 190 186 182 175 170 168
300 301 305 314 318 298 257 228 213 203 194 187 187 190 192 195 198 200 203 206 208 210 212 216 220 222 224 226 227 228 230 231 231 232 234 234 236 237 237 238 238 237 234 229 225 225 227 227 229 233 234 235 236 235 233 230 222 219 224 210 184 206 242 244 233 224 220 222 229 233 230 225 220 218 216 215 216 210 197 191 193 190 183 177 172
300 300 300 303 310 303 268 224 204 195 191 189 191 193 196 198 199 195 193 195 201 205 208 214 220 221 221 224 227 229 231 232 233 234 235 235 236 238 237 235 233 233 231 228 225 225 227 227 229 233 235 236 237 235 232 226 209 210 229 218 204 226 248 242 227 224 223 222 227 228 222 214 209 205 204 206 207 203 197 198 202 200 193 188 184
303 300 295 288 288 288 275 239 209 197 194 193 194 195 196 199 199 197 194 194 196 199 205 213 218 219 219 221 224 227 230 232 234 236 236 236 235 233 228 224 224 225 227 228 225 225 228 228 230 233 234 236 236 233 227 215 202 220 234 226 211 222 235 226 214 219 221 219 221 222 215 210 208 206 205 204 202 201 200 204 208 205 198 197 199
310 300 292 282 273 272 279 281 250 202 193 200 203 202 200 199 199 197 198 198 198 199 204 209 212 214 217 220 223 226 228 230 232 235 236 235 233 229 222 218 218 221 226 226 224 225 229 230 233 237 238 238 238 239 247 243 228 224 232 230 216 214 219 215 208 209 210 212 215 215 212 213 213 210 209 208 207 207 206 207 210 208 201 203 209
317 301 288 278 268 261 273 298 292 243 190 191 217 225 216 208 201 196 194 196 197 199 201 202 201 202 209 216 220 224 227 228 228 230 230 229 229 228 225 222 219 221 225 224 218 222 234 240 244 244 242 241 249 251 249 243 228 215 220 224 216 209 214 217 213 207 202 201 202 203 207 211 209 204 205 209 214 215 213 213 214 209 205 208 213
327 310 291 275 264 252 243 268 274 259 225 204 201 203 209 215 209 199 194 193 194 194 194 193 193 195 199 205 212 218 222 223 224 225 225 225 226 225 224 224 222 220 219 215 208 220 231 240 249 250 242 238 245 247 240 226 214 209 214 218 212 203 204 208 207 204 200 198 197 202 207 207 199 197 205 213 217 213 209 207 206 204 205 210 215
336 322 298 274 252 234 221 222 229 233 233 226 215 205 203 204 202 197 193 191 188 184 182 183 189 195 197 196 198 202 206 209 213 217 219 220 221 219 218 222 223 214 206 207 216 221 224 231 245 251 238 222 224 228 222 212 212 216 219 217 207 192 186 190 194 198 200 202 203 204 204 200 195 198 206 211 210 207 203 201 202 202 203 206 209
339 329 310 286 239 215 217 219 213 207 212 224 226 216 209 206 200 194 192 188 181 176 177 182 191 199 197 189 182 181 181 181 186 191 190 188 193 196 200 209 211 197 193 206 218 217 213 219 232 236 223 203 201 207 208 208 210 211 210 206 195 181 179 187 193 195 198 200 199 195 196 199 200 197 196 198 205 210 211 210 207 204 203 202 200
345 340 328 314 265 208 206 209 208 206 208 212 213 209 205 203 198 193 187 180 171 167 168 174 184 194 192 179 169 167 167 161 155 155 153 150 155 157 157 163 166 161 172 192 203 201 195 195 192 185 177 172 176 185 188 188 188 186 181 179 178 177 180 187 190 191 193 195 194 193 198 202 201 196 192 194 201 204 201 198 194 193 194 194 191
354 352 346 340 335 247 203 205 210 214 213 208 206 204 200 193 186 178 168 158 154 152 147 143 149 161 168 164 158 156 155 149 142 139 135 131 130 127 123 124 128 130 139 152 162 165 165 161 154 151 149 144 144 149 152 155 161 164 161 160 160 160 161 167 174 178 180 181 184 188 192 192 189 187 185 181 176 175 175 174 172 172 175 176 177
3 1 1 2 9 26 50 124 187 198 201 201 199 194 183 172 165 158 150 143 143 143 138 132 131 133 137 144 145 141 135 131 129 126 121 118 116 114 111 112 116 119 124 130 135 139 141 138 134 133 132 132 134 135 134 135 141 146 148 150 148 144 142 146 151 155 159 163 167 173 174 170 167 167 164 160 158 159 159 158 156 153 152 153 159
12 7 10 14 23 39 52 65 87 111 126 136 143 144 144 146 146 143 140 140 141 140 137 133 131 128 128 131 131 125 119 117 118 116 113 111 109 108 108 110 112 114 117 118 121 124 125 123 121 119 118 120 123 124 125 128 131 134 137 141 143 139 136 136 136 138 142 146 149 152 151 150 149 149 147 148 151 151 147 144 142 137 133 136 152
23 14 14 19 26 39 52 60 71 87 97 101 104 110 118 125 127 128 129 130 129 126 122 120 119 118 117 118 118 116 113 112 111 109 107 107 105 104 106 107 108 108 108 109 112 114 114 112 111 110 109 110 113 117 120 124 128 130 133 136 135 131 128 127 127 130 134 137 138 138 138 137 137 136 135 135 138 136 128 120 116 113 100 79 53
33 25 21 21 25 35 48 57 65 75 86 93 95 96 98 102 105 108 111 111 109 108 107 106 106 104 101 99 101 103 104 105 104 103 103 102 102 102 103 103 104 103 103 103 105 107 107 106 105 103 101 102 104 107 109 114 120 125 129 130 129 125 122 122 123 125 129 131 130 129 128 125 120 118 118 116 114 113 107 99 92 85 71 54 36
39 34 28 25 27 34 43 53 63 69 74 81 86 87 88 90 92 93 95 96 96 96 96 97 98 97 95 92 92 93 95 98 100 101 102 101 101 101 101 101 100 98 97 97 98 99 101 102 101 99 98 97 97 97 98 101 106 111 115 120 120 116 113 117 122 123 124 123 121 120 120 116 109 105 104 102 99 96 90 83 75 64 57 47 26
45 38 32 31 36 40 41 45 55 65 71 76 81 84 86 89 92 93 94 93 92 91 90 90 91 92 94 94 94 95 97 98 98 99 100 100 99 99 99 99 98 97 96 95 95 96 96 97 97 96 96 96 95 93 91 92 95 98 101 104 107 106 106 108 111 112 114 116 116 115 114 109 103 99 95 91 87 81 72 65 55 41 36 33 22
51 44 38 38 44 49 49 47 48 55 64 71 77 81 83 85 89 92 95 95 93 93 92 91 91 92 94 96 97 98 98 98 97 96 96 96 96 96 96 96 97 98 98 97 97 97 97 97 97 96 95 94 94 93 91 89 89 91 94 97 101 103 105 105 104 104 106 107 107 108 108 105 100 96 91 86 83 76 66 59 53 48 48 47 39
58 50 44 43 46 51 55 56 54 55 59 64 67 71 77 81 84 88 93 95 95 94 94 94 94 94 95 95 96 96 95 94 94 94 95 95 95 96 97 98 98 99 99 99 98 98 98 99 98 98 97 95 93 92 91 90 88 89 93 98 102 103 104 102 100 100 101 102 101 102 102 99 95 91 86 80 75 70 64 60 58 57 56 52 44
62 58 52 49 49 51 54 57 57 58 62 64 64 63 67 71 75 81 87 91 94 95 96 96 96 96 95 94 94 95 95 95 95 95 95 96 98 99 99 99 98 98 98 98 97 96 96 96 96 96 96 94 92 91 90 90 90 90 92 95 97 97 96 95 93 92 95 97 97 95 93 88 84 80 75 70 66 64 63 61 58 55 52 46 39